Location: Dzierzno
(50.6159°N, 19.2852°E)
Time: 00:51:11
(UTC+00:00)

SJ-12 - Pass Details

Date: 18 November 2025
Orbit: 517 x 528 km, 97.8° (Epoch: 05 December)

Event Time Altitude Azimuth Distance (km) Brightness Sun altitude
Rises 15:29:55 0° 142° (SE) 2,644 7.1 -6.1°
Reaches altitude 10° 15:32:08 10° 133° (SE) 1,758 6.2 -6.4°
Maximum altitude 15:35:34 34° 68° (ENE) 883 4.4 -6.9°
Drops below altitude 10° 15:39:01 10° 3° (N) 1,765 6.2 -7.4°
Sets 15:41:15 0° 354° (N) 2,657 7.2 -7.8°
